Year,Month,Day,Hour,Minute,Value (Times are PST for temperature in C)
2016,07,25,00,00,16.70
2016,07,25,00,01,16.70
2016,07,25,00,02,16.70
2016,07,25,00,03,16.70
2016,07,25,00,04,16.70
2016,07,25,00,05,16.70
2016,07,25,00,06,16.70
2016,07,25,00,07,16.70
2016,07,25,00,08,16.70
2016,07,25,00,09,16.70
2016,07,25,00,10,16.70
2016,07,25,00,11,16.70
2016,07,25,00,12,16.70
2016,07,25,00,13,16.70
2016,07,25,00,14,16.70
2016,07,25,00,15,16.70
2016,07,25,00,16,16.70
2016,07,25,00,17,16.60
2016,07,25,00,18,16.60
2016,07,25,00,19,16.60
2016,07,25,00,20,16.60
2016,07,25,00,21,16.60
2016,07,25,00,22,16.60
2016,07,25,00,23,16.60
2016,07,25,00,24,16.60
2016,07,25,00,25,16.50
2016,07,25,00,26,16.40
2016,07,25,00,27,16.40
2016,07,25,00,28,16.40
2016,07,25,00,29,16.40
2016,07,25,00,30,16.40
2016,07,25,00,31,16.40
2016,07,25,00,32,16.40
2016,07,25,00,33,16.40
2016,07,25,00,34,16.40
2016,07,25,00,35,16.40
2016,07,25,00,36,16.40
2016,07,25,00,37,16.30
2016,07,25,00,38,16.30
2016,07,25,00,39,16.30
2016,07,25,00,40,16.20
2016,07,25,00,41,16.20
2016,07,25,00,42,16.20
2016,07,25,00,43,16.10
2016,07,25,00,44,16.10
2016,07,25,00,45,16.10
2016,07,25,00,46,16.10
2016,07,25,00,47,16.10
2016,07,25,00,48,16.10
2016,07,25,00,49,16.10
2016,07,25,00,50,16.10
2016,07,25,00,51,16.10
2016,07,25,00,52,16.10
2016,07,25,00,53,16.10
2016,07,25,00,54,16.10
2016,07,25,00,55,16.10
2016,07,25,00,56,16.10
2016,07,25,00,57,16.10
2016,07,25,00,58,16.10
2016,07,25,00,59,16.10
2016,07,25,01,00,16.10
2016,07,25,01,01,16.10
2016,07,25,01,02,16.10
2016,07,25,01,03,16.10
2016,07,25,01,04,16.10
2016,07,25,01,05,16.10
2016,07,25,01,06,16.10
2016,07,25,01,07,16.10
2016,07,25,01,08,16.20
2016,07,25,01,09,16.20
2016,07,25,01,10,16.20
2016,07,25,01,11,16.20
2016,07,25,01,12,16.20
2016,07,25,01,13,16.20
2016,07,25,01,14,16.20
2016,07,25,01,15,16.20
2016,07,25,01,16,16.20
2016,07,25,01,17,16.20
2016,07,25,01,18,16.20
2016,07,25,01,19,16.20
2016,07,25,01,20,16.20
2016,07,25,01,21,16.20
2016,07,25,01,22,16.10
2016,07,25,01,23,16.10
2016,07,25,01,24,16.10
2016,07,25,01,25,16.10
2016,07,25,01,26,16.10
2016,07,25,01,27,16.10
2016,07,25,01,28,16.10
2016,07,25,01,29,16.10
2016,07,25,01,30,16.00
2016,07,25,01,31,15.90
2016,07,25,01,32,15.90
2016,07,25,01,33,15.90
2016,07,25,01,34,15.80
2016,07,25,01,35,15.80
2016,07,25,01,36,15.80
2016,07,25,01,37,15.80
2016,07,25,01,38,15.80
2016,07,25,01,39,15.80
2016,07,25,01,40,15.80
2016,07,25,01,41,15.80
2016,07,25,01,42,15.80
2016,07,25,01,43,15.80
2016,07,25,01,44,15.80
2016,07,25,01,45,15.80
2016,07,25,01,46,15.80
2016,07,25,01,47,15.80
2016,07,25,01,48,15.80
2016,07,25,01,49,15.80
2016,07,25,01,50,15.80
2016,07,25,01,51,15.80
2016,07,25,01,52,15.80
2016,07,25,01,53,15.80
2016,07,25,01,54,15.80
2016,07,25,01,55,15.80
2016,07,25,01,56,15.80
2016,07,25,01,57,15.80
2016,07,25,01,58,15.80
2016,07,25,01,59,15.80
2016,07,25,02,00,15.80
2016,07,25,02,01,15.80
2016,07,25,02,02,15.80
2016,07,25,02,03,15.80
2016,07,25,02,04,15.80
2016,07,25,02,05,15.80
2016,07,25,02,06,15.80
2016,07,25,02,07,15.80
2016,07,25,02,08,15.90
2016,07,25,02,09,15.90
2016,07,25,02,10,15.90
2016,07,25,02,11,16.00
2016,07,25,02,12,16.10
2016,07,25,02,13,16.10
2016,07,25,02,14,16.10
2016,07,25,02,15,16.10
2016,07,25,02,16,16.10
2016,07,25,02,17,16.10
2016,07,25,02,18,16.10
2016,07,25,02,19,16.10
2016,07,25,02,20,16.10
2016,07,25,02,21,16.10
2016,07,25,02,22,16.10
2016,07,25,02,23,16.10
2016,07,25,02,24,16.10
2016,07,25,02,25,16.10
2016,07,25,02,26,16.10
2016,07,25,02,27,16.10
2016,07,25,02,28,16.10
2016,07,25,02,29,16.10
2016,07,25,02,30,16.10
2016,07,25,02,31,16.10
2016,07,25,02,32,16.10
2016,07,25,02,33,16.10
2016,07,25,02,34,16.00
2016,07,25,02,35,15.90
2016,07,25,02,36,15.90
2016,07,25,02,37,15.90
2016,07,25,02,38,15.80
2016,07,25,02,39,15.80
2016,07,25,02,40,15.80
2016,07,25,02,41,15.80
2016,07,25,02,42,15.80
2016,07,25,02,43,15.80
2016,07,25,02,44,15.70
2016,07,25,02,45,15.70
2016,07,25,02,46,15.70
2016,07,25,02,47,15.70
2016,07,25,02,48,15.60
2016,07,25,02,49,15.60
2016,07,25,02,50,15.60
2016,07,25,02,51,15.60
2016,07,25,02,52,15.50
2016,07,25,02,53,15.50
2016,07,25,02,54,15.50
2016,07,25,02,55,15.50
2016,07,25,02,56,15.50
2016,07,25,02,57,15.50
2016,07,25,02,58,15.50
2016,07,25,02,59,15.50
2016,07,25,03,00,15.50
2016,07,25,03,01,15.50
2016,07,25,03,02,15.50
2016,07,25,03,03,15.50
2016,07,25,03,04,15.50
2016,07,25,03,05,15.50
2016,07,25,03,06,15.50
2016,07,25,03,07,15.60
2016,07,25,03,08,15.60
2016,07,25,03,09,15.60
2016,07,25,03,10,15.60
2016,07,25,03,11,15.60
2016,07,25,03,12,15.70
2016,07,25,03,13,15.70
2016,07,25,03,14,15.70
2016,07,25,03,15,15.70
2016,07,25,03,16,15.70
2016,07,25,03,17,15.70
2016,07,25,03,18,15.70
2016,07,25,03,19,15.70
2016,07,25,03,20,15.70
2016,07,25,03,21,15.70
2016,07,25,03,22,15.70
2016,07,25,03,23,15.70
2016,07,25,03,24,15.70
2016,07,25,03,25,15.70
2016,07,25,03,26,15.70
2016,07,25,03,27,15.70
2016,07,25,03,28,15.60
2016,07,25,03,29,15.60
2016,07,25,03,30,15.60
2016,07,25,03,31,15.60
2016,07,25,03,32,15.60
2016,07,25,03,33,15.60
2016,07,25,03,34,15.50
2016,07,25,03,35,15.50
2016,07,25,03,36,15.50
2016,07,25,03,37,15.50
2016,07,25,03,38,15.50
2016,07,25,03,39,15.50
2016,07,25,03,40,15.50
2016,07,25,03,41,15.40
2016,07,25,03,42,15.40
2016,07,25,03,43,15.40
2016,07,25,03,44,15.40
2016,07,25,03,45,15.40
2016,07,25,03,46,15.30
2016,07,25,03,47,15.30
2016,07,25,03,48,15.30
2016,07,25,03,49,15.30
2016,07,25,03,50,15.30
2016,07,25,03,51,15.30
2016,07,25,03,52,15.30
2016,07,25,03,53,15.30
2016,07,25,03,54,15.30
2016,07,25,03,55,15.30
2016,07,25,03,56,15.30
2016,07,25,03,57,15.30
2016,07,25,03,58,15.20
2016,07,25,03,59,15.20
2016,07,25,04,00,15.20
2016,07,25,04,01,15.20
2016,07,25,04,02,15.20
2016,07,25,04,03,15.20
2016,07,25,04,04,15.20
2016,07,25,04,05,15.30
2016,07,25,04,06,15.30
2016,07,25,04,07,15.30
2016,07,25,04,08,15.30
2016,07,25,04,09,15.30
2016,07,25,04,10,15.30
2016,07,25,04,11,15.30
2016,07,25,04,12,15.30
2016,07,25,04,13,15.30
2016,07,25,04,14,15.30
2016,07,25,04,15,15.30
2016,07,25,04,16,15.30
2016,07,25,04,17,15.40
2016,07,25,04,18,15.40
2016,07,25,04,19,15.40
2016,07,25,04,20,15.40
2016,07,25,04,21,15.40
2016,07,25,04,22,15.40
2016,07,25,04,23,15.40
2016,07,25,04,24,15.40
2016,07,25,04,25,15.40
2016,07,25,04,26,15.40
2016,07,25,04,27,15.40
2016,07,25,04,28,15.40
2016,07,25,04,29,15.30
2016,07,25,04,30,15.30
2016,07,25,04,31,15.30
2016,07,25,04,32,15.30
2016,07,25,04,33,15.30
2016,07,25,04,34,15.30
2016,07,25,04,35,15.30
2016,07,25,04,36,15.20
2016,07,25,04,37,15.20
2016,07,25,04,38,15.20
2016,07,25,04,39,15.20
2016,07,25,04,40,15.20
2016,07,25,04,41,15.20
2016,07,25,04,42,15.20
2016,07,25,04,43,15.20
2016,07,25,04,44,15.20
2016,07,25,04,45,15.20
2016,07,25,04,46,15.20
2016,07,25,04,47,15.20
2016,07,25,04,48,15.30
2016,07,25,04,49,15.30
2016,07,25,04,50,15.30
2016,07,25,04,51,15.30
2016,07,25,04,52,15.30
2016,07,25,04,53,15.30
2016,07,25,04,54,15.30
2016,07,25,04,55,15.30
2016,07,25,04,56,15.30
2016,07,25,04,57,15.30
2016,07,25,04,58,15.30
2016,07,25,04,59,15.30
2016,07,25,05,00,15.30
2016,07,25,05,01,15.30
2016,07,25,05,02,15.30
2016,07,25,05,03,15.30
2016,07,25,05,04,15.30
2016,07,25,05,05,15.20
2016,07,25,05,06,15.20
2016,07,25,05,07,15.20
2016,07,25,05,08,15.20
2016,07,25,05,09,15.20
2016,07,25,05,10,15.20
2016,07,25,05,11,15.10
2016,07,25,05,12,15.10
2016,07,25,05,13,15.10
2016,07,25,05,14,15.10
2016,07,25,05,15,15.10
2016,07,25,05,16,15.10
2016,07,25,05,17,15.10
2016,07,25,05,18,15.10
2016,07,25,05,19,15.10
2016,07,25,05,20,15.10
2016,07,25,05,21,15.10
2016,07,25,05,22,15.10
2016,07,25,05,23,15.10
2016,07,25,05,24,15.10
2016,07,25,05,25,15.10
2016,07,25,05,26,15.10
2016,07,25,05,27,15.10
2016,07,25,05,28,15.10
2016,07,25,05,29,15.10
2016,07,25,05,30,15.10
2016,07,25,05,31,15.10
2016,07,25,05,32,15.10
2016,07,25,05,33,15.10
2016,07,25,05,34,15.10
2016,07,25,05,35,15.10
2016,07,25,05,36,15.00
2016,07,25,05,37,15.00
2016,07,25,05,38,15.00
2016,07,25,05,39,15.00
2016,07,25,05,40,15.00
2016,07,25,05,41,15.00
2016,07,25,05,42,15.00
2016,07,25,05,43,14.90
2016,07,25,05,44,14.90
2016,07,25,05,45,14.90
2016,07,25,05,46,14.90
2016,07,25,05,47,14.90
2016,07,25,05,48,14.90
2016,07,25,05,49,14.90
2016,07,25,05,50,14.90
2016,07,25,05,51,14.90
2016,07,25,05,52,14.90
2016,07,25,05,53,14.90
2016,07,25,05,54,14.90
2016,07,25,05,55,14.90
2016,07,25,05,56,14.90
2016,07,25,05,57,14.90
2016,07,25,05,58,15.00
2016,07,25,05,59,15.00
2016,07,25,06,00,15.00
2016,07,25,06,01,15.00
2016,07,25,06,02,15.00
2016,07,25,06,03,15.00
2016,07,25,06,04,15.00
2016,07,25,06,05,15.00
2016,07,25,06,06,15.10
2016,07,25,06,07,15.10
2016,07,25,06,08,15.10
2016,07,25,06,09,15.10
2016,07,25,06,10,15.10
2016,07,25,06,11,15.10
2016,07,25,06,12,15.10
2016,07,25,06,13,15.20
2016,07,25,06,14,15.20
2016,07,25,06,15,15.20
2016,07,25,06,16,15.30
2016,07,25,06,17,15.30
2016,07,25,06,18,15.30
2016,07,25,06,19,15.30
2016,07,25,06,20,15.30
2016,07,25,06,21,15.40
2016,07,25,06,22,15.40
2016,07,25,06,23,15.40
2016,07,25,06,24,15.40
2016,07,25,06,25,15.40
2016,07,25,06,26,15.40
2016,07,25,06,27,15.40
2016,07,25,06,28,15.40
2016,07,25,06,29,15.40
2016,07,25,06,30,15.40
2016,07,25,06,31,15.40
2016,07,25,06,32,15.40
2016,07,25,06,33,15.40
2016,07,25,06,34,15.40
2016,07,25,06,35,15.40
2016,07,25,06,36,15.40
2016,07,25,06,37,15.40
2016,07,25,06,38,15.40
2016,07,25,06,39,15.40
2016,07,25,06,40,15.50
2016,07,25,06,41,15.50
2016,07,25,06,42,15.50
2016,07,25,06,43,15.50
2016,07,25,06,44,15.60
2016,07,25,06,45,15.60
2016,07,25,06,46,15.60
2016,07,25,06,47,15.70
2016,07,25,06,48,15.80
2016,07,25,06,49,15.80
2016,07,25,06,50,15.80
2016,07,25,06,51,15.80
2016,07,25,06,52,15.80
2016,07,25,06,53,15.80
2016,07,25,06,54,15.90
2016,07,25,06,55,15.90
2016,07,25,06,56,15.90
2016,07,25,06,57,15.90
2016,07,25,06,58,15.90
2016,07,25,06,59,16.10
2016,07,25,07,00,16.10
2016,07,25,07,01,16.10
2016,07,25,07,02,16.10
2016,07,25,07,03,16.10
2016,07,25,07,04,16.10
2016,07,25,07,05,16.10
2016,07,25,07,06,16.10
2016,07,25,07,07,16.10
2016,07,25,07,08,16.10
2016,07,25,07,09,16.10
2016,07,25,07,10,16.10
2016,07,25,07,11,16.10
2016,07,25,07,12,16.10
2016,07,25,07,13,16.10
2016,07,25,07,14,16.10
2016,07,25,07,15,16.10
2016,07,25,07,16,16.20
2016,07,25,07,17,16.20
2016,07,25,07,18,16.20
2016,07,25,07,19,16.20
2016,07,25,07,20,16.30
2016,07,25,07,21,16.30
2016,07,25,07,22,16.30
2016,07,25,07,23,16.30
2016,07,25,07,24,16.40
2016,07,25,07,25,16.40
2016,07,25,07,26,16.40
2016,07,25,07,27,16.40
2016,07,25,07,28,16.40
2016,07,25,07,29,16.40
2016,07,25,07,30,16.50
2016,07,25,07,31,16.60
2016,07,25,07,32,16.60
2016,07,25,07,33,16.70
2016,07,25,07,34,16.70
2016,07,25,07,35,16.70
2016,07,25,07,36,16.70
2016,07,25,07,37,16.80
2016,07,25,07,38,16.80
2016,07,25,07,39,16.80
2016,07,25,07,40,16.80
2016,07,25,07,41,16.80
2016,07,25,07,42,16.80
2016,07,25,07,43,16.80
2016,07,25,07,44,16.80
2016,07,25,07,45,16.80
2016,07,25,07,46,16.80
2016,07,25,07,47,16.80
2016,07,25,07,48,16.80
2016,07,25,07,49,16.80
2016,07,25,07,50,16.80
2016,07,25,07,51,16.80
2016,07,25,07,52,16.80
2016,07,25,07,53,16.90
2016,07,25,07,54,16.90
2016,07,25,07,55,16.90
2016,07,25,07,56,17.00
2016,07,25,07,57,17.00
2016,07,25,07,58,17.10
2016,07,25,07,59,17.20
2016,07,25,08,00,17.30
2016,07,25,08,01,17.30
2016,07,25,08,02,17.40
2016,07,25,08,03,17.50
2016,07,25,08,04,17.50
2016,07,25,08,05,17.70
2016,07,25,08,06,17.80
2016,07,25,08,07,17.90
2016,07,25,08,08,18.10
2016,07,25,08,09,18.30
2016,07,25,08,10,18.50
2016,07,25,08,11,18.60
2016,07,25,08,12,18.70
2016,07,25,08,13,18.90
2016,07,25,08,14,19.00
2016,07,25,08,15,19.20
2016,07,25,08,16,19.30
2016,07,25,08,17,19.40
2016,07,25,08,18,19.60
2016,07,25,08,19,19.70
2016,07,25,08,20,19.70
2016,07,25,08,21,19.80
2016,07,25,08,22,19.90
2016,07,25,08,23,19.90
2016,07,25,08,24,20.00
2016,07,25,08,25,20.10
2016,07,25,08,26,20.20
2016,07,25,08,27,20.20
2016,07,25,08,28,20.30
2016,07,25,08,29,20.40
2016,07,25,08,30,20.50
2016,07,25,08,31,20.60
2016,07,25,08,32,20.70
2016,07,25,08,33,20.80
2016,07,25,08,34,20.90
2016,07,25,08,35,21.00
2016,07,25,08,36,21.00
2016,07,25,08,37,21.00
2016,07,25,08,38,21.10
2016,07,25,08,39,21.10
2016,07,25,08,40,21.20
2016,07,25,08,41,21.30
2016,07,25,08,42,21.40
2016,07,25,08,43,21.50
2016,07,25,08,44,21.60
2016,07,25,08,45,21.70
2016,07,25,08,46,21.80
2016,07,25,08,47,21.80
2016,07,25,08,48,21.90
2016,07,25,08,49,21.90
2016,07,25,08,50,21.90
2016,07,25,08,51,21.90
2016,07,25,08,52,21.90
2016,07,25,08,53,21.90
2016,07,25,08,54,21.80
2016,07,25,08,55,21.80
2016,07,25,08,56,21.80
2016,07,25,08,57,21.80
2016,07,25,08,58,21.80
2016,07,25,08,59,21.80
2016,07,25,09,00,21.80
2016,07,25,09,01,21.80
2016,07,25,09,02,21.80
2016,07,25,09,03,21.80
2016,07,25,09,04,21.80
2016,07,25,09,05,21.80
2016,07,25,09,06,21.90
2016,07,25,09,07,21.90
2016,07,25,09,08,21.90
2016,07,25,09,09,22.00
2016,07,25,09,10,22.00
2016,07,25,09,11,22.00
2016,07,25,09,12,22.10
2016,07,25,09,13,22.10
2016,07,25,09,14,22.10
2016,07,25,09,15,22.10
2016,07,25,09,16,22.10
2016,07,25,09,17,22.10
2016,07,25,09,18,22.10
2016,07,25,09,19,22.20
2016,07,25,09,20,22.20
2016,07,25,09,21,22.30
2016,07,25,09,22,22.30
2016,07,25,09,23,22.40
2016,07,25,09,24,22.40
2016,07,25,09,25,22.50
2016,07,25,09,26,22.60
2016,07,25,09,27,22.60
2016,07,25,09,28,22.70
2016,07,25,09,29,22.80
2016,07,25,09,30,22.90
2016,07,25,09,31,23.00
2016,07,25,09,32,23.10
2016,07,25,09,33,23.20
2016,07,25,09,34,23.30
2016,07,25,09,35,23.30
2016,07,25,09,36,23.30
2016,07,25,09,37,23.30
2016,07,25,09,38,23.30
2016,07,25,09,39,23.30
2016,07,25,09,40,23.30
2016,07,25,09,41,23.30
2016,07,25,09,42,23.30
2016,07,25,09,43,23.40
2016,07,25,09,44,23.40
2016,07,25,09,45,23.40
2016,07,25,09,46,23.50
2016,07,25,09,47,23.60
2016,07,25,09,48,23.60
2016,07,25,09,49,23.60
2016,07,25,09,50,23.60
2016,07,25,09,51,23.70
2016,07,25,09,52,23.70
2016,07,25,09,53,23.80
2016,07,25,09,54,23.90
2016,07,25,09,55,24.00
2016,07,25,09,56,24.10
2016,07,25,09,57,24.20
2016,07,25,09,58,24.20
2016,07,25,09,59,24.40
2016,07,25,10,00,24.50
2016,07,25,10,01,24.60
2016,07,25,10,02,24.60
2016,07,25,10,03,24.70
2016,07,25,10,04,24.70
2016,07,25,10,05,24.80
2016,07,25,10,06,24.80
2016,07,25,10,07,24.90
2016,07,25,10,08,24.90
2016,07,25,10,09,24.90
2016,07,25,10,10,24.90
2016,07,25,10,11,24.90
2016,07,25,10,12,24.90
2016,07,25,10,13,24.90
2016,07,25,10,14,24.80
2016,07,25,10,15,24.80
2016,07,25,10,16,24.80
2016,07,25,10,17,24.90
2016,07,25,10,18,24.90
2016,07,25,10,19,24.90
2016,07,25,10,20,25.00
2016,07,25,10,21,25.00
2016,07,25,10,22,25.00
2016,07,25,10,23,25.00
2016,07,25,10,24,25.00
2016,07,25,10,25,25.00
2016,07,25,10,26,25.00
2016,07,25,10,27,25.00
2016,07,25,10,28,25.00
2016,07,25,10,29,25.00
2016,07,25,10,30,25.00
2016,07,25,10,31,24.90
2016,07,25,10,32,24.90
2016,07,25,10,33,24.80
2016,07,25,10,34,24.80
2016,07,25,10,35,24.70
2016,07,25,10,36,24.60
2016,07,25,10,37,24.60
2016,07,25,10,38,24.60
2016,07,25,10,39,24.70
2016,07,25,10,40,24.70
2016,07,25,10,41,24.70
2016,07,25,10,42,24.70
2016,07,25,10,43,24.70
2016,07,25,10,44,24.70
2016,07,25,10,45,24.60
2016,07,25,10,46,24.50
2016,07,25,10,47,24.50
2016,07,25,10,48,24.40
2016,07,25,10,49,24.40
2016,07,25,10,50,24.40
2016,07,25,10,51,24.40
2016,07,25,10,52,24.40
2016,07,25,10,53,24.40
2016,07,25,10,54,24.50
2016,07,25,10,55,24.50
2016,07,25,10,56,24.40
2016,07,25,10,57,24.30
2016,07,25,10,58,24.20
2016,07,25,10,59,24.10
2016,07,25,11,00,24.10
2016,07,25,11,01,24.10
2016,07,25,11,02,24.10
2016,07,25,11,03,24.00
2016,07,25,11,04,23.90
2016,07,25,11,05,23.90
2016,07,25,11,06,23.90
2016,07,25,11,07,23.80
2016,07,25,11,08,23.80
2016,07,25,11,09,23.80
2016,07,25,11,10,23.90
2016,07,25,11,11,23.90
2016,07,25,11,12,24.00
2016,07,25,11,13,24.10
2016,07,25,11,14,24.20
2016,07,25,11,15,24.40
2016,07,25,11,16,24.50
2016,07,25,11,17,24.60
2016,07,25,11,18,24.70
2016,07,25,11,19,24.80
2016,07,25,11,20,24.80
2016,07,25,11,21,24.90
2016,07,25,11,22,24.90
2016,07,25,11,23,24.90
2016,07,25,11,24,24.90
2016,07,25,11,25,24.90
2016,07,25,11,26,24.90
2016,07,25,11,27,24.90
2016,07,25,11,28,24.90
2016,07,25,11,29,24.80
2016,07,25,11,30,24.80
2016,07,25,11,31,24.80
2016,07,25,11,32,24.80
2016,07,25,11,33,24.70
2016,07,25,11,34,24.70
2016,07,25,11,35,24.70
2016,07,25,11,36,24.70
2016,07,25,11,37,24.60
2016,07,25,11,38,24.60
2016,07,25,11,39,24.60
2016,07,25,11,40,24.50
2016,07,25,11,41,24.50
2016,07,25,11,42,24.50
2016,07,25,11,43,24.60
2016,07,25,11,44,24.70
2016,07,25,11,45,24.80
2016,07,25,11,46,24.90
2016,07,25,11,47,25.00
2016,07,25,11,48,25.20
2016,07,25,11,49,25.30
2016,07,25,11,50,25.40
2016,07,25,11,51,25.50
2016,07,25,11,52,25.60
2016,07,25,11,53,25.60
2016,07,25,11,54,25.70
2016,07,25,11,55,25.70
2016,07,25,11,56,25.70
2016,07,25,11,57,25.60
2016,07,25,11,58,25.50
2016,07,25,11,59,25.50
2016,07,25,12,00,25.50
2016,07,25,12,01,25.50
2016,07,25,12,02,25.50
2016,07,25,12,03,25.40
2016,07,25,12,04,25.30
2016,07,25,12,05,25.20
2016,07,25,12,06,25.20
2016,07,25,12,07,25.10
2016,07,25,12,08,25.00
2016,07,25,12,09,24.90
2016,07,25,12,10,24.90
2016,07,25,12,11,24.90
2016,07,25,12,12,24.90
2016,07,25,12,13,24.90
2016,07,25,12,14,24.90
2016,07,25,12,15,25.00
2016,07,25,12,16,25.10
2016,07,25,12,17,25.10
2016,07,25,12,18,25.20
2016,07,25,12,19,25.30
2016,07,25,12,20,25.30
2016,07,25,12,21,25.30
2016,07,25,12,22,25.30
2016,07,25,12,23,25.30
2016,07,25,12,24,25.30
2016,07,25,12,25,25.40
2016,07,25,12,26,25.40
2016,07,25,12,27,25.40
2016,07,25,12,28,25.30
2016,07,25,12,29,25.30
2016,07,25,12,30,25.30
2016,07,25,12,31,25.40
2016,07,25,12,32,25.50
2016,07,25,12,33,25.50
2016,07,25,12,34,25.50
2016,07,25,12,35,25.50
2016,07,25,12,36,25.60
2016,07,25,12,37,25.70
2016,07,25,12,38,25.70
2016,07,25,12,39,25.60
2016,07,25,12,40,25.60
2016,07,25,12,41,25.60
2016,07,25,12,42,25.60
2016,07,25,12,43,25.60
2016,07,25,12,44,25.60
2016,07,25,12,45,25.60
2016,07,25,12,46,25.60
2016,07,25,12,47,25.50
2016,07,25,12,48,25.50
2016,07,25,12,49,25.50
2016,07,25,12,50,25.40
2016,07,25,12,51,25.40
2016,07,25,12,52,25.40
2016,07,25,12,53,25.40
2016,07,25,12,54,25.50
2016,07,25,12,55,25.50
2016,07,25,12,56,25.60
2016,07,25,12,57,25.70
2016,07,25,12,58,25.80
2016,07,25,12,59,25.90
2016,07,25,13,00,25.90
2016,07,25,13,01,25.90
2016,07,25,13,02,25.90
2016,07,25,13,03,25.90
2016,07,25,13,04,26.00
2016,07,25,13,05,26.10
2016,07,25,13,06,26.30
2016,07,25,13,07,26.40
2016,07,25,13,08,26.40
2016,07,25,13,09,26.30
2016,07,25,13,10,26.40
2016,07,25,13,11,26.50
2016,07,25,13,12,26.60
2016,07,25,13,13,26.60
2016,07,25,13,14,26.60
2016,07,25,13,15,26.70
2016,07,25,13,16,26.80
2016,07,25,13,17,26.80
2016,07,25,13,18,26.70
2016,07,25,13,19,26.70
2016,07,25,13,20,26.60
2016,07,25,13,21,26.60
2016,07,25,13,22,26.60
2016,07,25,13,23,26.30
2016,07,25,13,24,26.00
2016,07,25,13,25,25.90
2016,07,25,13,26,25.90
2016,07,25,13,27,25.80
2016,07,25,13,28,25.80
2016,07,25,13,29,25.80
2016,07,25,13,30,25.90
2016,07,25,13,31,26.00
2016,07,25,13,32,26.10
2016,07,25,13,33,26.30
2016,07,25,13,34,26.50
2016,07,25,13,35,26.60
2016,07,25,13,36,26.70
2016,07,25,13,37,26.80
2016,07,25,13,38,26.90
2016,07,25,13,39,26.90
2016,07,25,13,40,26.90
2016,07,25,13,41,26.90
2016,07,25,13,42,26.90
2016,07,25,13,43,26.90
2016,07,25,13,44,26.80
2016,07,25,13,45,26.80
2016,07,25,13,46,26.80
2016,07,25,13,47,26.90
2016,07,25,13,48,27.00
2016,07,25,13,49,27.10
2016,07,25,13,50,27.20
2016,07,25,13,51,27.30
2016,07,25,13,52,27.30
2016,07,25,13,53,27.30
2016,07,25,13,54,27.20
2016,07,25,13,55,27.30
2016,07,25,13,56,27.30
2016,07,25,13,57,27.30
2016,07,25,13,58,27.20
2016,07,25,13,59,27.00
2016,07,25,14,00,26.80
2016,07,25,14,01,26.70
2016,07,25,14,02,26.60
2016,07,25,14,03,26.60
2016,07,25,14,04,26.70
2016,07,25,14,05,26.80
2016,07,25,14,06,26.90
2016,07,25,14,07,27.10
2016,07,25,14,08,27.20
2016,07,25,14,09,27.30
2016,07,25,14,10,27.50
2016,07,25,14,11,27.60
2016,07,25,14,12,27.70
2016,07,25,14,13,27.60
2016,07,25,14,14,27.70
2016,07,25,14,15,27.70
2016,07,25,14,16,27.60
2016,07,25,14,17,27.60
2016,07,25,14,18,27.60
2016,07,25,14,19,27.70
2016,07,25,14,20,27.70
2016,07,25,14,21,27.70
2016,07,25,14,22,27.80
2016,07,25,14,23,27.90
2016,07,25,14,24,28.00
2016,07,25,14,25,28.00
2016,07,25,14,26,28.00
2016,07,25,14,27,28.10
2016,07,25,14,28,28.10
2016,07,25,14,29,28.20
2016,07,25,14,30,28.10
2016,07,25,14,31,28.20
2016,07,25,14,32,28.20
2016,07,25,14,33,28.20
2016,07,25,14,34,28.20
2016,07,25,14,35,28.20
2016,07,25,14,36,28.20
2016,07,25,14,37,28.30
2016,07,25,14,38,28.20
2016,07,25,14,39,28.20
2016,07,25,14,40,28.30
2016,07,25,14,41,28.30
2016,07,25,14,42,28.30
2016,07,25,14,43,28.30
2016,07,25,14,44,28.30
2016,07,25,14,45,28.40
2016,07,25,14,46,28.40
2016,07,25,14,47,28.40
2016,07,25,14,48,28.50
2016,07,25,14,49,28.60
2016,07,25,14,50,28.60
2016,07,25,14,51,28.70
2016,07,25,14,52,28.80
2016,07,25,14,53,28.80
2016,07,25,14,54,28.90
2016,07,25,14,55,28.90
2016,07,25,14,56,29.00
2016,07,25,14,57,29.10
2016,07,25,14,58,29.10
2016,07,25,14,59,29.10
2016,07,25,15,00,29.10
2016,07,25,15,01,29.00
2016,07,25,15,02,28.90
2016,07,25,15,03,28.90
2016,07,25,15,04,28.90
2016,07,25,15,05,28.90
2016,07,25,15,06,28.90
2016,07,25,15,07,28.90
2016,07,25,15,08,28.80
2016,07,25,15,09,28.80
2016,07,25,15,10,28.80
2016,07,25,15,11,28.80
2016,07,25,15,12,28.80
2016,07,25,15,13,28.90
2016,07,25,15,14,28.90
2016,07,25,15,15,29.00
2016,07,25,15,16,29.10
2016,07,25,15,17,29.20
2016,07,25,15,18,29.10
2016,07,25,15,19,29.00
2016,07,25,15,20,28.90
2016,07,25,15,21,28.90
2016,07,25,15,22,28.90
2016,07,25,15,23,28.80
2016,07,25,15,24,28.80
2016,07,25,15,25,28.80
2016,07,25,15,26,28.80
2016,07,25,15,27,28.70
2016,07,25,15,28,28.50
2016,07,25,15,29,28.40
2016,07,25,15,30,28.40
2016,07,25,15,31,28.50
2016,07,25,15,32,28.60
2016,07,25,15,33,28.60
2016,07,25,15,34,28.60
2016,07,25,15,35,28.70
2016,07,25,15,36,28.80
2016,07,25,15,37,28.80
2016,07,25,15,38,28.90
2016,07,25,15,39,28.90
2016,07,25,15,40,28.90
2016,07,25,15,41,28.90
2016,07,25,15,42,28.90
2016,07,25,15,43,29.10
2016,07,25,15,44,29.10
2016,07,25,15,45,29.00
2016,07,25,15,46,28.90
2016,07,25,15,47,28.90
2016,07,25,15,48,28.90
2016,07,25,15,49,28.90
2016,07,25,15,50,28.90
2016,07,25,15,51,28.90
2016,07,25,15,52,28.90
2016,07,25,15,53,28.90
2016,07,25,15,54,28.90
2016,07,25,15,55,28.90
2016,07,25,15,56,28.90
2016,07,25,15,57,28.90
2016,07,25,15,58,28.90
2016,07,25,15,59,28.90
2016,07,25,16,00,28.90
2016,07,25,16,01,28.90
2016,07,25,16,02,28.90
2016,07,25,16,03,29.00
2016,07,25,16,04,29.10
2016,07,25,16,05,29.10
2016,07,25,16,06,29.10
2016,07,25,16,07,29.10
2016,07,25,16,08,28.90
2016,07,25,16,09,28.90
2016,07,25,16,10,28.90
2016,07,25,16,11,28.80
2016,07,25,16,12,28.80
2016,07,25,16,13,28.70
2016,07,25,16,14,28.60
2016,07,25,16,15,28.40
2016,07,25,16,16,28.40
2016,07,25,16,17,28.30
2016,07,25,16,18,28.20
2016,07,25,16,19,28.10
2016,07,25,16,20,28.00
2016,07,25,16,21,28.00
2016,07,25,16,22,27.90
2016,07,25,16,23,27.90
2016,07,25,16,24,27.80
2016,07,25,16,25,27.80
2016,07,25,16,26,27.90
2016,07,25,16,27,27.90
2016,07,25,16,28,27.90
2016,07,25,16,29,27.90
2016,07,25,16,30,27.90
2016,07,25,16,31,28.00
2016,07,25,16,32,28.00
2016,07,25,16,33,28.00
2016,07,25,16,34,27.90
2016,07,25,16,35,27.90
2016,07,25,16,36,27.90
2016,07,25,16,37,27.90
2016,07,25,16,38,27.90
2016,07,25,16,39,27.90
2016,07,25,16,40,27.80
2016,07,25,16,41,27.80
2016,07,25,16,42,27.70
2016,07,25,16,43,27.70
2016,07,25,16,44,27.60
2016,07,25,16,45,27.60
2016,07,25,16,46,27.60
2016,07,25,16,47,27.50
2016,07,25,16,48,27.40
2016,07,25,16,49,27.30
2016,07,25,16,50,27.30
2016,07,25,16,51,27.30
2016,07,25,16,52,27.30
2016,07,25,16,53,27.20
2016,07,25,16,54,27.20
2016,07,25,16,55,27.20
2016,07,25,16,56,27.10
2016,07,25,16,57,27.10
2016,07,25,16,58,27.10
2016,07,25,16,59,27.10
2016,07,25,17,00,27.10
2016,07,25,17,01,27.10
2016,07,25,17,02,27.10
2016,07,25,17,03,27.10
2016,07,25,17,04,27.10
2016,07,25,17,05,27.10
2016,07,25,17,06,27.20
2016,07,25,17,07,27.20
2016,07,25,17,08,27.20
2016,07,25,17,09,27.20
2016,07,25,17,10,27.20
2016,07,25,17,11,27.20
2016,07,25,17,12,27.10
2016,07,25,17,13,27.10
2016,07,25,17,14,27.10
2016,07,25,17,15,27.00
2016,07,25,17,16,26.90
2016,07,25,17,17,27.00
2016,07,25,17,18,27.00
2016,07,25,17,19,26.90